FENGYUN 1C DEB, 37417

Orbit data source: Space-Track

FENGYUN 1C DEB, 37417 is space debris in SSO originally from a launch on Mon, 10 May 1999 UTC launched from the Taiyaun Space Center, China (TSC). Fengyun 1C debris stems from the Chinese weather satellite Fengyun-1C, which was intentionally destroyed by a Chinese anti-satellite missile in 2007. This event dramatically increased the amount of space debris, with thousands of trackable fragments posing hazards to satellites and human spaceflight. The Fengyun 1C debris cloud has become a focal point in discussions about space sustainability and the need for international regulations to prevent the creation of new debris.

Loading next visibility...
Identifier
37417, 1999-025EGK
Orbit
SSO
Country
Flag of CNCN / PRC
Related business
Manufacturer
Unknown
Mission
Spacecraft
Bus & Motor
Unknown
Mass
Unknown
Launch date (UTC)
1999-05-10 (27 years ago)
Launch vehicle
Unknown
Launch site
Taiyaun Space Center, China (TSC)
Object type
Payload
Rocket body
Debris
Shape & HBR
Unknown shape, 0.1 m
Radar Cross Section
Small (<0.1 m²)

Expand to show TLE details & history
Last TLE update: 1 week ago

TLE from 1 week ago
0 FENGYUN 1C DEB
1 37417U 99025EGK 26202.25599297  .00000359  00000-0  23178-3 0  9998
2 37417  98.8090 194.4853 0079184   1.1896 358.9448 14.07616579714522
Epoch: 2026-07-21T06:08Z
TLE epoch observation values (Epoch: 2026-07-21T06:08:37.792Z)
Latitude
0.00001°
Longitude
163.29953°
Altitude
813.058 km
Speed
7.476 km/s
True Right ascension
12h 57m 56s
True Declination
0° 00' 00"
Sunlit
Object was in daylight at epoch
Visualization orbit readout
Latitude
Unknown
Longitude
Unknown
Altitude
Unknown
Speed
Unknown
Apparent Right ascension
Unknown
Apparent Declination
Unknown
Sunlit
N/A
Visualization observer readout
Local Sidereal Time
01:22:28
Azimuth
Unknown
Elevation
Unknown
Doppler factor
Unknown
Orbital elements
Apogee altitude
922.071 km
Perigee altitude
807.367 km
Semi-major axis
7,242.856 km
Eccentricity
0.00792
Inclination
98.809°
RAAN
194.4853°
Arg. of periapsis
1.1896°
True anomaly
358.92792°
Mean anomaly
358.9448°
Eccentric anomaly
358.93638°
Mean motion
3.5211 °/min
Orbital period
102.24 mins
BSTAR
0.00023178
Loading maneuver chart data...
Computing Atmospheric mass density...
Loading historical data...
Loading historical data...
Loading historical data...
Loading historical data...
Loading historical data...
Loading historical data...
Loading historical data...

Documentation

Showing up to 5 results
|